Time,TemperatureF,DewpointF,PressureIn,WindDirection,WindDirectionDegrees,WindSpeedMPH,WindSpeedGustMPH,Humidity,HourlyPrecipIn,Conditions,Clouds,dailyrainin,SoftwareType,DateUTC
2013-01-14 00:00:00,13.7,9.5,30.38,West,271,0.0,1.0,83,0.00,,SCT025,0.00,VWS V14.01,2013-01-14 06:00:00,
2013-01-14 00:02:00,13.6,9.7,30.38,West,278,0.0,0.0,84,0.00,,,0.00,VWS V14.01,2013-01-14 06:02:00,
2013-01-14 00:07:00,13.6,9.7,30.37,NW,316,1.0,2.0,84,0.00,,,0.00,VWS V14.01,2013-01-14 06:07:00,
2013-01-14 00:10:00,13.6,9.7,30.37,NW,315,0.0,2.0,84,0.00,,SCT025,0.00,VWS V14.01,2013-01-14 06:10:00,
2013-01-14 00:13:00,13.5,9.6,30.37,NW,316,1.0,2.0,84,0.00,,,0.00,VWS V14.01,2013-01-14 06:13:00,
2013-01-14 00:18:00,13.5,9.6,30.37,NW,316,0.0,2.0,84,0.00,,,0.00,VWS V14.01,2013-01-14 06:18:00,
2013-01-14 00:20:00,13.5,9.6,30.37,NW,316,0.0,2.0,84,0.00,,SCT025,0.00,VWS V14.01,2013-01-14 06:20:00,
2013-01-14 00:23:00,13.4,9.5,30.37,NW,314,0.0,0.0,84,0.00,,CLR,0.00,VWS V14.01,2013-01-14 06:23:00,
2013-01-14 00:28:00,13.4,9.7,30.38,NW,307,0.0,0.0,85,0.00,,CLR,0.00,VWS V14.01,2013-01-14 06:28:00,
2013-01-14 00:30:00,13.4,9.7,30.38,NW,304,1.0,1.0,85,0.00,,SCT025,0.00,VWS V14.01,2013-01-14 06:30:00,
2013-01-14 00:33:00,13.4,9.7,30.39,WNW,284,1.0,1.0,85,0.00,,CLR,0.00,VWS V14.01,2013-01-14 06:33:00,
2013-01-14 00:38:00,13.4,10.0,30.40,WNW,283,0.0,1.0,86,0.00,,CLR,0.00,VWS V14.01,2013-01-14 06:38:00,
2013-01-14 00:40:00,13.4,10.0,30.40,WNW,283,0.0,1.0,86,0.00,,SCT025,0.00,VWS V14.01,2013-01-14 06:40:00,
2013-01-14 00:43:00,13.3,9.9,30.40,WNW,283,0.0,1.0,86,0.00,,SCT110,0.00,VWS V14.01,2013-01-14 06:43:00,
2013-01-14 00:48:00,13.3,9.9,30.40,WNW,283,0.0,1.0,86,0.00,,SCT110,0.00,VWS V14.01,2013-01-14 06:48:00,
2013-01-14 00:50:00,13.2,9.8,30.40,WNW,283,0.0,1.0,86,0.00,,SCT025,0.00,VWS V14.01,2013-01-14 06:50:00,
2013-01-14 00:54:00,13.0,9.6,30.40,WNW,283,0.0,0.0,86,0.00,,SCT110,0.00,VWS V14.01,2013-01-14 06:54:00,
2013-01-14 00:59:00,12.9,9.5,30.40,WNW,283,0.0,0.0,86,0.00,,SCT110,0.00,VWS V14.01,2013-01-14 06:59:00,
2013-01-14 01:00:00,12.9,9.5,30.40,WNW,283,0.0,0.0,86,0.00,,SCT025,0.00,VWS V14.01,2013-01-14 07:00:00,
2013-01-14 01:04:00,12.8,9.4,30.40,WNW,283,0.0,0.0,86,0.00,,CLR,0.00,VWS V14.01,2013-01-14 07:04:00,
2013-01-14 01:09:00,12.7,9.3,30.41,WNW,283,0.0,0.0,86,0.00,,CLR,0.00,VWS V14.01,2013-01-14 07:09:00,
2013-01-14 01:10:00,12.7,9.3,30.41,WNW,283,0.0,1.0,86,0.00,,SCT025,0.00,VWS V14.01,2013-01-14 07:10:00,
2013-01-14 01:14:00,12.5,9.1,30.41,WNW,283,0.0,1.0,86,0.00,,CLR,0.00,VWS V14.01,2013-01-14 07:14:00,
2013-01-14 01:19:00,12.5,9.4,30.41,WNW,283,0.0,0.0,87,0.00,,CLR,0.00,VWS V14.01,2013-01-14 07:19:00,
2013-01-14 01:20:00,12.5,9.4,30.41,WNW,283,0.0,1.0,87,0.00,,SCT025,0.00,VWS V14.01,2013-01-14 07:20:00,
2013-01-14 01:25:00,12.4,9.3,30.42,WNW,283,0.0,0.0,87,0.00,,CLR,0.00,VWS V14.01,2013-01-14 07:25:00,
2013-01-14 01:30:00,12.4,9.3,30.42,WNW,283,0.0,0.0,87,0.00,,CLR,0.00,VWS V14.01,2013-01-14 07:30:00,
2013-01-14 01:35:00,12.5,9.4,30.42,West,262,0.0,0.0,87,0.00,,CLR,0.00,VWS V14.01,2013-01-14 07:35:00,
2013-01-14 01:40:00,12.4,9.3,30.43,West,262,0.0,0.0,87,0.00,,CLR,0.00,VWS V14.01,2013-01-14 07:40:00,
2013-01-14 01:45:00,12.3,9.2,30.43,West,266,0.0,0.0,87,0.00,,CLR,0.00,VWS V14.01,2013-01-14 07:45:00,
2013-01-14 01:50:00,12.3,9.4,30.43,West,266,0.0,0.0,88,0.00,,CLR,0.00,VWS V14.01,2013-01-14 07:50:00,
2013-01-14 01:55:00,12.3,9.4,30.44,West,278,0.0,0.0,88,0.00,,CLR,0.00,VWS V14.01,2013-01-14 07:55:00,
2013-01-14 02:00:00,12.4,9.5,30.44,WNW,294,0.0,0.0,88,0.00,,SCT025,0.00,VWS V14.01,2013-01-14 08:00:00,
2013-01-14 02:01:00,12.5,9.6,30.44,WNW,294,0.0,0.0,88,0.00,,CLR,0.00,VWS V14.01,2013-01-14 08:01:00,
2013-01-14 02:06:00,12.6,9.7,30.44,WNW,293,0.0,0.0,88,0.00,,CLR,0.00,VWS V14.01,2013-01-14 08:06:00,
2013-01-14 02:10:00,12.7,9.8,30.44,West,267,0.0,0.0,88,0.00,,SCT025,0.00,VWS V14.01,2013-01-14 08:10:00,
2013-01-14 02:11:00,12.8,9.9,30.45,West,268,0.0,0.0,88,0.00,,CLR,0.00,VWS V14.01,2013-01-14 08:11:00,
2013-01-14 02:16:00,12.9,10.0,30.45,West,273,1.0,3.0,88,0.00,,CLR,0.00,VWS V14.01,2013-01-14 08:16:00,
2013-01-14 02:20:00,12.9,10.0,30.45,West,280,1.0,3.0,88,0.00,,SCT025,0.00,VWS V14.01,2013-01-14 08:20:00,
2013-01-14 02:21:00,13.0,10.1,30.45,WNW,295,1.0,2.0,88,0.00,,CLR,0.00,VWS V14.01,2013-01-14 08:21:00,
2013-01-14 02:26:00,13.1,10.2,30.46,WNW,299,0.0,2.0,88,0.00,,CLR,0.00,VWS V14.01,2013-01-14 08:26:00,
2013-01-14 02:30:00,13.1,10.0,30.46,WNW,303,1.0,2.0,87,0.00,,SCT025,0.00,VWS V14.01,2013-01-14 08:30:00,
2013-01-14 02:31:00,13.1,10.0,30.46,WNW,295,0.0,1.0,87,0.00,,CLR,0.00,VWS V14.01,2013-01-14 08:31:00,
2013-01-14 02:37:00,13.1,10.0,30.46,West,259,0.0,1.0,87,0.00,,CLR,0.00,VWS V14.01,2013-01-14 08:37:00,
2013-01-14 02:40:00,13.1,10.0,30.46,WSW,252,0.0,1.0,87,0.00,,SCT025,0.00,VWS V14.01,2013-01-14 08:40:00,
2013-01-14 02:42:00,13.1,10.0,30.46,NW,314,0.0,0.0,87,0.00,,CLR,0.00,VWS V14.01,2013-01-14 08:42:00,
2013-01-14 02:47:00,13.1,10.0,30.46,West,281,0.0,0.0,87,0.00,,CLR,0.00,VWS V14.01,2013-01-14 08:47:00,
2013-01-14 02:50:00,13.2,10.1,30.46,West,281,0.0,0.0,87,0.00,,SCT025,0.00,VWS V14.01,2013-01-14 08:50:00,
2013-01-14 02:52:00,13.1,10.0,30.47,WNW,284,0.0,0.0,87,0.00,,CLR,0.00,VWS V14.01,2013-01-14 08:52:00,
2013-01-14 02:57:00,13.0,9.9,30.47,NW,307,0.0,0.0,87,0.00,,CLR,0.00,VWS V14.01,2013-01-14 08:57:00,
2013-01-14 03:00:00,13.0,9.9,30.47,WNW,286,0.0,0.0,87,0.00,,SCT025,0.00,VWS V14.01,2013-01-14 09:00:00,
2013-01-14 03:02:00,13.0,9.9,30.48,SW,216,2.0,2.0,87,0.00,,CLR,0.00,VWS V14.01,2013-01-14 09:02:00,
2013-01-14 03:07:00,13.0,9.9,30.48,WSW,238,0.0,2.0,87,0.00,,CLR,0.00,VWS V14.01,2013-01-14 09:07:00,
2013-01-14 03:10:00,12.9,9.8,30.47,WSW,238,0.0,2.0,87,0.00,,SCT025,0.00,VWS V14.01,2013-01-14 09:10:00,
2013-01-14 03:12:00,12.9,9.8,30.47,WSW,238,0.0,0.0,87,0.00,,CLR,0.00,VWS V14.01,2013-01-14 09:12:00,
2013-01-14 03:18:00,12.8,9.7,30.47,WSW,238,0.0,0.0,87,0.00,,CLR,0.00,VWS V14.01,2013-01-14 09:18:00,
2013-01-14 03:20:00,12.9,10.0,30.47,WSW,238,0.0,0.0,88,0.00,,SCT025,0.00,VWS V14.01,2013-01-14 09:20:00,
2013-01-14 03:23:00,12.9,10.0,30.48,WSW,238,0.0,0.0,88,0.00,,CLR,0.00,VWS V14.01,2013-01-14 09:23:00,
2013-01-14 03:28:00,12.9,10.0,30.48,WNW,284,1.0,1.0,88,0.00,,CLR,0.00,VWS V14.01,2013-01-14 09:28:00,
2013-01-14 03:30:00,12.9,10.0,30.48,WNW,285,0.0,1.0,88,0.00,,SCT025,0.00,VWS V14.01,2013-01-14 09:30:00,
2013-01-14 03:33:00,12.9,10.0,30.48,West,277,0.0,1.0,88,0.00,,CLR,0.00,VWS V14.01,2013-01-14 09:33:00,
2013-01-14 03:38:00,12.9,10.0,30.48,NW,314,0.0,1.0,88,0.00,,CLR,0.00,VWS V14.01,2013-01-14 09:38:00,
2013-01-14 03:40:00,12.9,10.0,30.48,WNW,290,0.0,1.0,88,0.00,,SCT025,0.00,VWS V14.01,2013-01-14 09:40:00,
2013-01-14 03:43:00,13.0,10.1,30.49,WNW,288,0.0,0.0,88,0.00,,CLR,0.00,VWS V14.01,2013-01-14 09:43:00,
2013-01-14 03:48:00,12.9,10.0,30.49,West,280,0.0,0.0,88,0.00,,CLR,0.00,VWS V14.01,2013-01-14 09:48:00,
2013-01-14 03:50:00,12.9,10.0,30.49,West,280,0.0,0.0,88,0.00,,SCT025,0.00,VWS V14.01,2013-01-14 09:50:00,
2013-01-14 03:54:00,12.8,9.9,30.49,West,266,0.0,2.0,88,0.00,,CLR,0.00,VWS V14.01,2013-01-14 09:54:00,
2013-01-14 03:59:00,12.8,9.9,30.48,WNW,303,0.0,2.0,88,0.00,,CLR,0.00,VWS V14.01,2013-01-14 09:59:00,
2013-01-14 04:00:00,12.8,9.9,30.48,WNW,303,0.0,2.0,88,0.00,,SCT025,0.00,VWS V14.01,2013-01-14 10:00:00,
2013-01-14 04:04:00,12.7,9.8,30.48,West,278,0.0,1.0,88,0.00,,SCT110,0.00,VWS V14.01,2013-01-14 10:04:00,
2013-01-14 04:09:00,12.7,9.8,30.49,West,267,0.0,0.0,88,0.00,,SCT110,0.00,VWS V14.01,2013-01-14 10:09:00,
2013-01-14 04:10:00,12.7,9.8,30.49,West,267,0.0,1.0,88,0.00,,SCT025,0.00,VWS V14.01,2013-01-14 10:10:00,
2013-01-14 04:14:00,12.6,9.7,30.49,West,264,0.0,2.0,88,0.00,,SCT110,0.00,VWS V14.01,2013-01-14 10:14:00,
2013-01-14 04:19:00,12.7,9.8,30.49,SW,225,0.0,0.0,88,0.00,,SCT110,0.00,VWS V14.01,2013-01-14 10:19:00,
2013-01-14 04:20:00,12.7,9.8,30.49,SW,225,0.0,2.0,88,0.00,,SCT025,0.00,VWS V14.01,2013-01-14 10:20:00,
2013-01-14 04:24:00,12.6,9.7,30.49,WSW,255,0.0,0.0,88,0.00,,SCT110,0.00,VWS V14.01,2013-01-14 10:24:00,
2013-01-14 04:30:00,12.5,9.6,30.48,WSW,255,0.0,0.0,88,0.00,,SCT110,0.00,VWS V14.01,2013-01-14 10:30:00,
2013-01-14 04:35:00,12.5,9.6,30.48,West,267,0.0,0.0,88,0.00,,SCT110,0.00,VWS V14.01,2013-01-14 10:35:00,
2013-01-14 04:40:00,12.5,9.6,30.49,West,271,0.0,0.0,88,0.00,,CLR,0.00,VWS V14.01,2013-01-14 10:40:00,
2013-01-14 04:45:00,12.4,9.5,30.49,WNW,301,0.0,1.0,88,0.00,,CLR,0.00,VWS V14.01,2013-01-14 10:45:00,
2013-01-14 04:50:00,12.4,9.5,30.49,WNW,302,0.0,0.0,88,0.00,,CLR,0.00,VWS V14.01,2013-01-14 10:50:00,
2013-01-14 04:55:00,12.4,9.8,30.49,NW,306,1.0,1.0,89,0.00,,CLR,0.00,VWS V14.01,2013-01-14 10:55:00,
2013-01-14 05:00:00,12.4,9.8,30.49,NW,307,1.0,1.0,89,0.00,,SCT110,0.00,VWS V14.01,2013-01-14 11:00:00,
2013-01-14 05:05:00,12.3,9.7,30.49,NW,307,1.0,1.0,89,0.00,,SCT110,0.00,VWS V14.01,2013-01-14 11:05:00,
2013-01-14 05:10:00,12.4,9.8,30.50,NW,309,0.0,1.0,89,0.00,,SCT110,0.00,VWS V14.01,2013-01-14 11:10:00,
2013-01-14 05:15:00,12.5,9.9,30.50,NW,318,1.0,2.0,89,0.00,,SCT110,0.00,VWS V14.01,2013-01-14 11:15:00,
2013-01-14 05:20:00,12.5,9.9,30.50,NW,314,0.0,2.0,89,0.00,,SCT025,0.00,VWS V14.01,2013-01-14 11:20:00,
2013-01-14 05:21:00,12.5,9.9,30.50,WNW,298,1.0,1.0,89,0.00,,SCT110,0.00,VWS V14.01,2013-01-14 11:21:00,
2013-01-14 05:26:00,12.5,9.9,30.50,NW,311,1.0,2.0,89,0.00,,SCT110,0.00,VWS V14.01,2013-01-14 11:26:00,
2013-01-14 05:30:00,12.5,9.9,30.50,NW,315,1.0,2.0,89,0.00,,SCT025,0.00,VWS V14.01,2013-01-14 11:30:00,
2013-01-14 05:31:00,12.5,9.9,30.50,NW,310,2.0,3.0,89,0.00,,SCT110,0.00,VWS V14.01,2013-01-14 11:31:00,
2013-01-14 05:36:00,12.6,10.0,30.50,NW,310,2.0,3.0,89,0.00,,SCT110,0.00,VWS V14.01,2013-01-14 11:36:00,
2013-01-14 05:40:00,12.6,10.0,30.50,WNW,297,1.0,3.0,89,0.00,,SCT025,0.00,VWS V14.01,2013-01-14 11:40:00,
2013-01-14 05:41:00,12.6,9.7,30.50,NW,304,2.0,3.0,88,0.00,,SCT100,0.00,VWS V14.01,2013-01-14 11:41:00,
2013-01-14 05:46:00,12.6,9.7,30.51,NW,307,1.0,3.0,88,0.00,,SCT100,0.00,VWS V14.01,2013-01-14 11:46:00,
2013-01-14 05:50:00,12.6,9.7,30.51,NW,318,2.0,3.0,88,0.00,,SCT025,0.00,VWS V14.01,2013-01-14 11:50:00,
2013-01-14 05:51:00,12.6,9.7,30.51,NW,322,1.0,3.0,88,0.00,,SCT100,0.00,VWS V14.01,2013-01-14 11:51:00,
2013-01-14 05:56:00,12.7,9.8,30.51,NW,318,2.0,3.0,88,0.00,,SCT100,0.00,VWS V14.01,2013-01-14 11:56:00,
2013-01-14 06:00:00,12.6,9.7,30.51,NW,310,0.0,3.0,88,0.00,,SCT025,0.00,VWS V14.01,2013-01-14 12:00:00,
2013-01-14 06:01:00,12.6,9.7,30.51,WNW,301,2.0,3.0,88,0.00,,SCT100,0.00,VWS V14.01,2013-01-14 12:01:00,
2013-01-14 06:06:00,12.6,9.7,30.51,NW,319,1.0,4.0,88,0.00,,SCT100,0.00,VWS V14.01,2013-01-14 12:06:00,
2013-01-14 06:10:00,12.7,9.8,30.51,NW,316,2.0,4.0,88,0.00,,SCT025,0.00,VWS V14.01,2013-01-14 12:10:00,
2013-01-14 06:12:00,12.6,9.7,30.51,NW,311,2.0,2.0,88,0.00,,SCT100,0.00,VWS V14.01,2013-01-14 12:12:00,
2013-01-14 06:17:00,12.6,9.7,30.51,NW,311,1.0,3.0,88,0.00,,SCT100,0.00,VWS V14.01,2013-01-14 12:17:00,
2013-01-14 06:20:00,12.6,9.7,30.50,NW,326,3.0,3.0,88,0.00,,SCT025,0.00,VWS V14.01,2013-01-14 12:20:00,
2013-01-14 06:22:00,12.6,9.7,30.51,NW,321,2.0,4.0,88,0.00,,CLR,0.00,VWS V14.01,2013-01-14 12:22:00,
2013-01-14 06:27:00,12.6,9.7,30.51,NW,311,4.0,5.0,88,0.00,,CLR,0.00,VWS V14.01,2013-01-14 12:27:00,
2013-01-14 06:30:00,12.6,9.7,30.50,NW,321,1.0,5.0,88,0.00,,SCT025,0.00,VWS V14.01,2013-01-14 12:30:00,
2013-01-14 06:32:00,12.6,9.7,30.50,NW,319,2.0,3.0,88,0.00,,CLR,0.00,VWS V14.01,2013-01-14 12:32:00,
2013-01-14 06:37:00,12.6,9.7,30.50,NW,309,3.0,4.0,88,0.00,,CLR,0.00,VWS V14.01,2013-01-14 12:37:00,
2013-01-14 06:40:00,12.5,9.6,30.50,NW,308,3.0,4.0,88,0.00,,SCT025,0.00,VWS V14.01,2013-01-14 12:40:00,
2013-01-14 06:42:00,12.5,9.6,30.51,NW,311,3.0,4.0,88,0.00,,CLR,0.00,VWS V14.01,2013-01-14 12:42:00,
2013-01-14 06:47:00,12.5,9.6,30.51,NW,316,2.0,4.0,88,0.00,,CLR,0.00,VWS V14.01,2013-01-14 12:47:00,
2013-01-14 06:50:00,12.5,9.6,30.51,NW,321,1.0,4.0,88,0.00,,SCT025,0.00,VWS V14.01,2013-01-14 12:50:00,
2013-01-14 06:52:00,12.5,9.6,30.51,NW,319,3.0,3.0,88,0.00,,CLR,0.00,VWS V14.01,2013-01-14 12:52:00,
2013-01-14 06:57:00,12.5,9.6,30.50,NNW,332,1.0,3.0,88,0.00,,CLR,0.00,VWS V14.01,2013-01-14 12:57:00,
2013-01-14 07:00:00,12.5,9.6,30.51,NW,321,1.0,3.0,88,0.00,,SCT025,0.00,VWS V14.01,2013-01-14 13:00:00,
2013-01-14 07:03:00,12.5,9.6,30.51,NW,312,3.0,4.0,88,0.00,,CLR,0.00,VWS V14.01,2013-01-14 13:03:00,
2013-01-14 07:08:00,12.5,9.4,30.51,WNW,295,2.0,4.0,87,0.00,,CLR,0.00,VWS V14.01,2013-01-14 13:08:00,
2013-01-14 07:10:00,12.4,9.3,30.51,NW,309,2.0,4.0,87,0.00,,SCT025,0.00,VWS V14.01,2013-01-14 13:10:00,
2013-01-14 07:13:00,12.4,9.3,30.51,NW,307,1.0,2.0,87,0.00,,CLR,0.00,VWS V14.01,2013-01-14 13:13:00,
2013-01-14 07:18:00,12.4,9.3,30.51,NW,318,3.0,4.0,87,0.00,,CLR,0.00,VWS V14.01,2013-01-14 13:18:00,
2013-01-14 07:20:00,12.4,9.3,30.51,NW,309,3.0,4.0,87,0.00,,SCT025,0.00,VWS V14.01,2013-01-14 13:20:00,
2013-01-14 07:23:00,12.3,9.2,30.51,NW,318,3.0,4.0,87,0.00,,CLR,0.00,VWS V14.01,2013-01-14 13:23:00,
2013-01-14 07:28:00,12.3,9.2,30.51,NW,325,2.0,4.0,87,0.00,,CLR,0.00,VWS V14.01,2013-01-14 13:28:00,
2013-01-14 07:30:00,12.3,9.2,30.51,NNW,345,1.0,4.0,87,0.00,,SCT025,0.00,VWS V14.01,2013-01-14 13:30:00,
2013-01-14 07:33:00,12.3,9.2,30.51,WNW,297,2.0,3.0,87,0.00,,CLR,0.00,VWS V14.01,2013-01-14 13:33:00,
2013-01-14 07:38:00,12.3,9.2,30.51,NW,305,2.0,3.0,87,0.00,,CLR,0.00,VWS V14.01,2013-01-14 13:38:00,
2013-01-14 07:40:00,12.3,9.2,30.51,NW,318,0.0,3.0,87,0.00,,SCT025,0.00,VWS V14.01,2013-01-14 13:40:00,
2013-01-14 07:43:00,12.4,9.3,30.51,NW,309,1.0,3.0,87,0.00,,CLR,0.00,VWS V14.01,2013-01-14 13:43:00,
2013-01-14 07:48:00,12.6,9.5,30.52,NW,322,1.0,4.0,87,0.00,,CLR,0.00,VWS V14.01,2013-01-14 13:48:00,
2013-01-14 07:50:00,12.6,9.5,30.52,West,278,1.0,4.0,87,0.00,,SCT025,0.00,VWS V14.01,2013-01-14 13:50:00,
2013-01-14 07:53:00,12.8,9.7,30.52,NW,318,1.0,3.0,87,0.00,,CLR,0.00,VWS V14.01,2013-01-14 13:53:00,
2013-01-14 07:58:00,13.0,9.9,30.52,WNW,302,2.0,3.0,87,0.00,,CLR,0.00,VWS V14.01,2013-01-14 13:58:00,
2013-01-14 08:00:00,13.0,9.9,30.52,NNW,347,1.0,3.0,87,0.00,,SCT025,0.00,VWS V14.01,2013-01-14 14:00:00,
2013-01-14 08:04:00,13.2,10.1,30.52,NW,325,3.0,3.0,87,0.00,,CLR,0.00,VWS V14.01,2013-01-14 14:04:00,
2013-01-14 08:09:00,13.3,9.9,30.52,NW,314,1.0,5.0,86,0.00,,CLR,0.00,VWS V14.01,2013-01-14 14:09:00,
2013-01-14 08:10:00,13.3,9.9,30.52,NW,314,1.0,5.0,86,0.00,,SCT025,0.00,VWS V14.01,2013-01-14 14:10:00,
2013-01-14 08:14:00,13.4,10.0,30.52,NW,309,2.0,3.0,86,0.00,,CLR,0.00,VWS V14.01,2013-01-14 14:14:00,
2013-01-14 08:19:00,13.6,10.2,30.52,NNW,338,0.0,4.0,86,0.00,,CLR,0.00,VWS V14.01,2013-01-14 14:19:00,
2013-01-14 08:20:00,13.6,10.2,30.52,NNW,338,0.0,4.0,86,0.00,,SCT025,0.00,VWS V14.01,2013-01-14 14:20:00,
2013-01-14 08:24:00,13.9,10.5,30.52,NW,323,1.0,2.0,86,0.00,,CLR,0.00,VWS V14.01,2013-01-14 14:24:00,
2013-01-14 08:29:00,14.2,10.8,30.52,NW,321,0.0,1.0,86,0.00,,CLR,0.00,VWS V14.01,2013-01-14 14:29:00,
2013-01-14 08:30:00,14.2,10.8,30.52,NW,304,1.0,3.0,86,0.00,,SCT025,0.00,VWS V14.01,2013-01-14 14:30:00,
2013-01-14 08:34:00,14.3,10.6,30.52,NNE,27,0.0,3.0,85,0.00,,CLR,0.00,VWS V14.01,2013-01-14 14:34:00,
2013-01-14 08:39:00,14.4,10.7,30.52,WNW,301,1.0,1.0,85,0.00,,CLR,0.00,VWS V14.01,2013-01-14 14:39:00,
2013-01-14 08:40:00,14.4,10.7,30.52,NW,309,1.0,3.0,85,0.00,,SCT025,0.00,VWS V14.01,2013-01-14 14:40:00,
2013-01-14 08:44:00,14.7,11.0,30.52,WNW,302,0.0,2.0,85,0.00,,CLR,0.00,VWS V14.01,2013-01-14 14:44:00,
2013-01-14 08:49:00,14.8,11.1,30.52,NW,318,1.0,1.0,85,0.00,,CLR,0.00,VWS V14.01,2013-01-14 14:49:00,
2013-01-14 08:50:00,14.8,11.1,30.52,WNW,302,1.0,2.0,85,0.00,,SCT025,0.00,VWS V14.01,2013-01-14 14:50:00,
2013-01-14 08:54:00,14.9,10.9,30.53,NW,316,0.0,5.0,84,0.00,,CLR,0.00,VWS V14.01,2013-01-14 14:54:00,
2013-01-14 09:00:00,14.9,10.7,30.53,NW,316,0.0,3.0,83,0.00,,CLR,0.00,VWS V14.01,2013-01-14 15:00:00,
2013-01-14 09:05:00,15.2,11.2,30.53,NW,316,2.0,3.0,84,0.00,,CLR,0.00,VWS V14.01,2013-01-14 15:05:00,
2013-01-14 09:10:00,15.4,11.4,30.52,North,353,1.0,1.0,84,0.00,,CLR,0.00,VWS V14.01,2013-01-14 15:10:00,
2013-01-14 09:15:00,15.3,10.8,30.51,NNW,328,0.0,6.0,82,0.00,,CLR,0.00,VWS V14.01,2013-01-14 15:15:00,
2013-01-14 09:20:00,15.6,11.4,30.51,NNE,18,2.0,2.0,83,0.00,,CLR,0.00,VWS V14.01,2013-01-14 15:20:00,
2013-01-14 09:25:00,15.9,11.7,30.50,SSW,205,0.0,3.0,83,0.00,,CLR,0.00,VWS V14.01,2013-01-14 15:25:00,
2013-01-14 09:30:00,15.9,11.4,30.50,NNW,337,1.0,1.0,82,0.00,,CLR,0.00,VWS V14.01,2013-01-14 15:30:00,
2013-01-14 09:35:00,16.3,12.1,30.50,NW,315,1.0,3.0,83,0.00,,CLR,0.00,VWS V14.01,2013-01-14 15:35:00,
2013-01-14 09:40:00,16.4,12.1,30.50,NNE,14,1.0,3.0,83,0.00,,CLR,0.00,VWS V14.01,2013-01-14 15:40:00,
2013-01-14 09:45:00,16.7,12.4,30.51,NNW,340,2.0,3.0,83,0.00,,CLR,0.00,VWS V14.01,2013-01-14 15:45:00,
2013-01-14 09:50:00,16.8,12.3,30.51,WNW,302,3.0,4.0,82,0.00,,CLR,0.00,VWS V14.01,2013-01-14 15:50:00,
2013-01-14 09:55:00,17.0,12.2,30.52,NNE,18,1.0,4.0,81,0.00,,CLR,0.00,VWS V14.01,2013-01-14 15:55:00,
2013-01-14 10:00:00,17.1,12.3,30.53,NW,308,2.0,4.0,81,0.00,,,0.00,VWS V14.01,2013-01-14 16:00:00,
2013-01-14 10:06:00,17.4,12.6,30.53,North,11,1.0,4.0,81,0.00,,,0.00,VWS V14.01,2013-01-14 16:06:00,
2013-01-14 10:10:00,17.7,12.9,30.53,NE,38,2.0,4.0,81,0.00,,SCT025,0.00,VWS V14.01,2013-01-14 16:10:00,
2013-01-14 10:11:00,17.7,12.6,30.54,NNE,23,2.0,3.0,80,0.00,,,0.00,VWS V14.01,2013-01-14 16:11:00,
2013-01-14 10:16:00,17.9,13.1,30.55,NW,311,1.0,4.0,81,0.00,,,0.00,VWS V14.01,2013-01-14 16:16:00,
2013-01-14 10:20:00,18.1,13.3,30.55,NNW,336,0.0,4.0,81,0.00,,SCT025,0.00,VWS V14.01,2013-01-14 16:20:00,
2013-01-14 10:21:00,18.2,13.4,30.55,NW,312,3.0,3.0,81,0.00,,,0.00,VWS V14.01,2013-01-14 16:21:00,
2013-01-14 10:26:00,18.2,13.4,30.55,NW,307,2.0,3.0,81,0.00,,,0.00,VWS V14.01,2013-01-14 16:26:00,
2013-01-14 10:30:00,18.1,13.0,30.55,WNW,300,2.0,4.0,80,0.00,,SCT025,0.00,VWS V14.01,2013-01-14 16:30:00,
2013-01-14 10:31:00,18.0,12.6,30.55,WNW,288,1.0,4.0,79,0.00,,,0.00,VWS V14.01,2013-01-14 16:31:00,
2013-01-14 10:36:00,18.0,12.9,30.55,NW,316,0.0,4.0,80,0.00,,,0.00,VWS V14.01,2013-01-14 16:36:00,
2013-01-14 10:40:00,18.2,13.4,30.55,NW,307,1.0,4.0,81,0.00,,SCT025,0.00,VWS V14.01,2013-01-14 16:40:00,
2013-01-14 10:41:00,18.3,13.2,30.55,WNW,301,0.0,2.0,80,0.00,,,0.00,VWS V14.01,2013-01-14 16:41:00,
2013-01-14 10:46:00,18.5,13.6,30.55,NW,319,1.0,2.0,81,0.00,,,0.00,VWS V14.01,2013-01-14 16:46:00,
2013-01-14 10:50:00,18.6,13.8,30.54,WNW,302,1.0,2.0,81,0.00,,SCT025,0.00,VWS V14.01,2013-01-14 16:50:00,
2013-01-14 10:51:00,18.6,13.5,30.54,NW,312,2.0,2.0,80,0.00,,,0.00,VWS V14.01,2013-01-14 16:51:00,
2013-01-14 10:56:00,18.5,13.4,30.53,NW,316,1.0,3.0,80,0.00,,,0.00,VWS V14.01,2013-01-14 16:56:00,
2013-01-14 11:00:00,18.4,13.3,30.53,WNW,300,3.0,4.0,80,0.00,,SCT025,0.00,VWS V14.01,2013-01-14 17:00:00,
2013-01-14 11:01:00,18.5,13.6,30.53,NE,49,3.0,3.0,81,0.00,,,0.00,VWS V14.01,2013-01-14 17:01:00,
2013-01-14 11:06:00,18.7,13.9,30.53,North,1,2.0,4.0,81,0.00,,,0.00,VWS V14.01,2013-01-14 17:06:00,
2013-01-14 11:10:00,18.8,13.9,30.54,NNE,25,2.0,4.0,81,0.00,,SCT025,0.00,VWS V14.01,2013-01-14 17:10:00,
2013-01-14 11:12:00,18.8,13.7,30.54,NW,309,2.0,4.0,80,0.00,,,0.00,VWS V14.01,2013-01-14 17:12:00,
2013-01-14 11:17:00,18.5,13.1,30.54,NW,321,2.0,6.0,79,0.00,,,0.00,VWS V14.01,2013-01-14 17:17:00,
2013-01-14 11:20:00,18.6,13.5,30.54,NW,318,1.0,6.0,80,0.00,,SCT025,0.00,VWS V14.01,2013-01-14 17:20:00,
2013-01-14 11:22:00,18.7,13.6,30.54,WNW,299,1.0,3.0,80,0.00,,,0.00,VWS V14.01,2013-01-14 17:22:00,
2013-01-14 11:27:00,19.0,13.9,30.53,NW,309,3.0,5.0,80,0.00,,,0.00,VWS V14.01,2013-01-14 17:27:00,
2013-01-14 11:30:00,19.0,13.9,30.53,NNW,330,1.0,5.0,80,0.00,,SCT025,0.00,VWS V14.01,2013-01-14 17:30:00,
2013-01-14 11:32:00,19.1,14.2,30.52,NW,323,1.0,2.0,81,0.00,,,0.00,VWS V14.01,2013-01-14 17:32:00,
2013-01-14 11:37:00,19.2,14.1,30.52,ENE,65,2.0,5.0,80,0.00,,,0.00,VWS V14.01,2013-01-14 17:37:00,
2013-01-14 11:40:00,19.2,14.1,30.52,NE,40,2.0,5.0,80,0.00,,SCT025,0.00,VWS V14.01,2013-01-14 17:40:00,
2013-01-14 11:42:00,19.4,14.5,30.52,West,276,0.0,2.0,81,0.00,,,0.00,VWS V14.01,2013-01-14 17:42:00,
2013-01-14 11:47:00,19.6,14.4,30.53,NNW,338,2.0,6.0,80,0.00,,,0.00,VWS V14.01,2013-01-14 17:47:00,
2013-01-14 11:50:00,19.5,13.8,30.53,West,281,4.0,6.0,78,0.00,,SCT025,0.00,VWS V14.01,2013-01-14 17:50:00,
2013-01-14 11:52:00,19.4,13.7,30.53,NW,314,0.0,4.0,78,0.00,,,0.00,VWS V14.01,2013-01-14 17:52:00,
2013-01-14 11:57:00,19.6,14.2,30.54,NW,319,1.0,4.0,79,0.00,,,0.00,VWS V14.01,2013-01-14 17:57:00,
2013-01-14 12:00:00,19.7,14.3,30.54,West,270,0.0,4.0,79,0.00,,SCT025,0.00,VWS V14.01,2013-01-14 18:00:00,
2013-01-14 12:02:00,19.9,14.4,30.54,NNW,344,1.0,2.0,79,0.00,,CLR,0.00,VWS V14.01,2013-01-14 18:02:00,
2013-01-14 12:07:00,20.1,14.4,30.53,NW,310,0.0,2.0,78,0.00,,CLR,0.00,VWS V14.01,2013-01-14 18:07:00,
2013-01-14 12:10:00,20.1,14.4,30.53,WNW,288,1.0,2.0,78,0.00,,SCT025,0.00,VWS V14.01,2013-01-14 18:10:00,
2013-01-14 12:13:00,20.4,14.9,30.54,NW,325,0.0,3.0,79,0.00,,CLR,0.00,VWS V14.01,2013-01-14 18:13:00,
2013-01-14 12:18:00,20.2,14.4,30.54,NW,313,2.0,3.0,78,0.00,,CLR,0.00,VWS V14.01,2013-01-14 18:18:00,
2013-01-14 12:20:00,20.2,14.4,30.54,WSW,252,0.0,3.0,78,0.00,,SCT025,0.00,VWS V14.01,2013-01-14 18:20:00,
2013-01-14 12:23:00,20.4,14.6,30.53,NW,316,1.0,2.0,78,0.00,,CLR,0.00,VWS V14.01,2013-01-14 18:23:00,
2013-01-14 12:28:00,20.8,15.3,30.54,NNE,14,1.0,2.0,79,0.00,,CLR,0.00,VWS V14.01,2013-01-14 18:28:00,
2013-01-14 12:30:00,20.9,15.4,30.54,NNW,340,0.0,2.0,79,0.00,,SCT025,0.00,VWS V14.01,2013-01-14 18:30:00,
2013-01-14 12:33:00,20.8,14.4,30.53,WNW,295,1.0,4.0,76,0.00,,CLR,0.00,VWS V14.01,2013-01-14 18:33:00,
2013-01-14 12:38:00,20.7,14.6,30.53,West,267,3.0,4.0,77,0.00,,CLR,0.00,VWS V14.01,2013-01-14 18:38:00,
2013-01-14 12:40:00,20.7,14.6,30.53,WNW,302,2.0,4.0,77,0.00,,SCT025,0.00,VWS V14.01,2013-01-14 18:40:00,
2013-01-14 12:43:00,21.0,15.2,30.53,NW,326,0.0,2.0,78,0.00,,CLR,0.00,VWS V14.01,2013-01-14 18:43:00,
2013-01-14 12:48:00,21.7,15.9,30.53,West,281,1.0,2.0,78,0.00,,CLR,0.00,VWS V14.01,2013-01-14 18:48:00,
2013-01-14 12:50:00,21.8,16.0,30.53,NW,312,2.0,2.0,78,0.00,,SCT025,0.00,VWS V14.01,2013-01-14 18:50:00,
2013-01-14 12:53:00,21.8,15.1,30.53,WNW,303,2.0,4.0,75,0.00,,CLR,0.00,VWS V14.01,2013-01-14 18:53:00,
2013-01-14 12:59:00,21.6,15.5,30.53,East,81,1.0,4.0,77,0.00,,CLR,0.00,VWS V14.01,2013-01-14 18:59:00,
2013-01-14 13:00:00,21.6,15.5,30.53,ENE,77,1.0,4.0,77,0.00,,SCT025,0.00,VWS V14.01,2013-01-14 19:00:00,
2013-01-14 13:04:00,21.5,14.8,30.52,NNW,330,3.0,5.0,75,0.00,,CLR,0.00,VWS V14.01,2013-01-14 19:04:00,
2013-01-14 13:09:00,21.4,14.7,30.52,WNW,296,3.0,5.0,75,0.00,,CLR,0.00,VWS V14.01,2013-01-14 19:09:00,
2013-01-14 13:10:00,21.4,14.7,30.52,WNW,296,3.0,5.0,75,0.00,,SCT025,0.00,VWS V14.01,2013-01-14 19:10:00,
2013-01-14 13:14:00,21.4,14.7,30.52,WNW,285,1.0,6.0,75,0.00,,CLR,0.00,VWS V14.01,2013-01-14 19:14:00,
2013-01-14 13:19:00,21.5,15.1,30.52,North,355,3.0,5.0,76,0.00,,CLR,0.00,VWS V14.01,2013-01-14 19:19:00,
2013-01-14 13:20:00,21.5,15.1,30.52,NNE,21,4.0,6.0,76,0.00,,SCT025,0.00,VWS V14.01,2013-01-14 19:20:00,
2013-01-14 13:24:00,21.6,14.9,30.52,NW,312,1.0,5.0,75,0.00,,CLR,0.00,VWS V14.01,2013-01-14 19:24:00,
2013-01-14 13:29:00,21.9,14.9,30.52,NW,312,0.0,0.0,74,0.00,,CLR,0.00,VWS V14.01,2013-01-14 19:29:00,
2013-01-14 13:30:00,21.8,14.8,30.52,NW,314,0.0,5.0,74,0.00,,SCT025,0.00,VWS V14.01,2013-01-14 19:30:00,
2013-01-14 13:34:00,22.2,14.9,30.52,WNW,293,1.0,4.0,73,0.00,,CLR,0.00,VWS V14.01,2013-01-14 19:34:00,
2013-01-14 13:39:00,22.3,15.0,30.53,NNW,335,1.0,3.0,73,0.00,,CLR,0.00,VWS V14.01,2013-01-14 19:39:00,
2013-01-14 13:40:00,22.3,15.0,30.53,NNW,346,3.0,4.0,73,0.00,,SCT025,0.00,VWS V14.01,2013-01-14 19:40:00,
2013-01-14 13:44:00,22.8,15.8,30.53,NNW,338,1.0,4.0,74,0.00,,,0.00,VWS V14.01,2013-01-14 19:44:00,
2013-01-14 13:49:00,22.9,14.9,30.53,North,4,2.0,2.0,71,0.00,,,0.00,VWS V14.01,2013-01-14 19:49:00,
2013-01-14 13:50:00,22.8,14.5,30.53,NNE,22,1.0,4.0,70,0.00,,SCT025,0.00,VWS V14.01,2013-01-14 19:50:00,
2013-01-14 13:54:00,23.0,14.4,30.53,NNE,14,1.0,3.0,69,0.00,,,0.00,VWS V14.01,2013-01-14 19:54:00,
2013-01-14 13:59:00,23.5,15.2,30.53,NW,307,3.0,3.0,70,0.00,,,0.00,VWS V14.01,2013-01-14 19:59:00,
2013-01-14 14:00:00,23.4,15.4,30.53,WNW,300,3.0,3.0,71,0.00,,SCT025,0.00,VWS V14.01,2013-01-14 20:00:00,
2013-01-14 14:05:00,23.3,14.3,30.53,WNW,300,0.0,4.0,68,0.00,,,0.00,VWS V14.01,2013-01-14 20:05:00,
2013-01-14 14:10:00,23.6,15.3,30.53,NW,308,0.0,2.0,70,0.00,,,0.00,VWS V14.01,2013-01-14 20:10:00,
2013-01-14 14:15:00,23.9,15.9,30.53,NE,37,1.0,2.0,71,0.00,,,0.00,VWS V14.01,2013-01-14 20:15:00,
2013-01-14 14:20:00,23.9,15.9,30.54,NW,307,1.0,1.0,71,0.00,,,0.00,VWS V14.01,2013-01-14 20:20:00,
2013-01-14 14:25:00,24.4,16.4,30.54,West,278,1.0,2.0,71,0.00,,,0.00,VWS V14.01,2013-01-14 20:25:00,
2013-01-14 14:30:00,25.0,16.3,30.53,NW,307,0.0,1.0,69,0.00,,,0.00,VWS V14.01,2013-01-14 20:30:00,
2013-01-14 14:35:00,25.1,15.7,30.54,NE,43,2.0,3.0,67,0.00,,,0.00,VWS V14.01,2013-01-14 20:35:00,
2013-01-14 14:40:00,24.5,15.1,30.53,NE,37,1.0,2.0,67,0.00,,,0.00,VWS V14.01,2013-01-14 20:40:00,
2013-01-14 14:45:00,24.4,16.0,30.53,NE,44,0.0,3.0,70,0.00,,,0.00,VWS V14.01,2013-01-14 20:45:00,
2013-01-14 14:50:00,24.2,14.8,30.53,ENE,75,2.0,2.0,67,0.00,,,0.00,VWS V14.01,2013-01-14 20:50:00,
2013-01-14 14:55:00,24.0,15.0,30.53,East,80,0.0,3.0,68,0.00,,,0.00,VWS V14.01,2013-01-14 20:55:00,
2013-01-14 15:00:00,24.3,15.6,30.54,NE,38,1.0,4.0,69,0.00,,,0.00,VWS V14.01,2013-01-14 21:00:00,
2013-01-14 15:06:00,24.7,16.0,30.54,NW,320,0.0,4.0,69,0.00,,,0.00,VWS V14.01,2013-01-14 21:06:00,
2013-01-14 15:10:00,24.8,15.8,30.54,NE,46,0.0,4.0,68,0.00,,SCT025,0.00,VWS V14.01,2013-01-14 21:10:00,
2013-01-14 15:11:00,24.6,15.2,30.54,NE,47,1.0,3.0,67,0.00,,,0.00,VWS V14.01,2013-01-14 21:11:00,
2013-01-14 15:16:00,24.5,15.1,30.54,ENE,72,0.0,3.0,67,0.00,,,0.00,VWS V14.01,2013-01-14 21:16:00,
2013-01-14 15:20:00,24.5,15.1,30.54,NE,51,0.0,3.0,67,0.00,,SCT025,0.00,VWS V14.01,2013-01-14 21:20:00,
2013-01-14 15:21:00,24.7,15.7,30.54,NE,51,0.0,0.0,68,0.00,,,0.00,VWS V14.01,2013-01-14 21:21:00,
2013-01-14 15:26:00,25.3,15.9,30.54,WNW,284,0.0,1.0,67,0.00,,,0.00,VWS V14.01,2013-01-14 21:26:00,
2013-01-14 15:30:00,25.8,16.7,30.54,South,187,0.0,1.0,68,0.00,,SCT025,0.00,VWS V14.01,2013-01-14 21:30:00,
2013-01-14 15:31:00,26.3,16.9,30.54,South,187,1.0,1.0,67,0.00,,,0.00,VWS V14.01,2013-01-14 21:31:00,
2013-01-14 15:36:00,26.8,16.6,30.54,SE,135,1.0,2.0,65,0.00,,,0.00,VWS V14.01,2013-01-14 21:36:00,
2013-01-14 15:40:00,26.7,16.5,30.54,SSE,155,1.0,2.0,65,0.00,,SCT025,0.00,VWS V14.01,2013-01-14 21:40:00,
2013-01-14 15:41:00,26.6,16.4,30.54,SSE,155,0.0,1.0,65,0.00,,CLR,0.00,VWS V14.01,2013-01-14 21:41:00,
2013-01-14 15:46:00,26.1,16.0,30.54,NE,38,1.0,2.0,65,0.00,,CLR,0.00,VWS V14.01,2013-01-14 21:46:00,
2013-01-14 15:50:00,25.5,15.4,30.54,NE,38,0.0,2.0,65,0.00,,SCT025,0.00,VWS V14.01,2013-01-14 21:50:00,
2013-01-14 15:51:00,25.2,15.4,30.53,NE,39,0.0,0.0,66,0.00,,CLR,0.00,VWS V14.01,2013-01-14 21:51:00,
2013-01-14 15:56:00,24.9,15.5,30.53,NE,40,0.0,2.0,67,0.00,,CLR,0.00,VWS V14.01,2013-01-14 21:56:00,
2013-01-14 16:00:00,24.8,15.8,30.53,NE,40,0.0,2.0,68,0.00,,SCT025,0.00,VWS V14.01,2013-01-14 22:00:00,
2013-01-14 16:01:00,24.6,15.6,30.53,NE,38,0.0,0.0,68,0.00,,CLR,0.00,VWS V14.01,2013-01-14 22:01:00,
2013-01-14 16:06:00,24.5,16.1,30.53,ENE,78,0.0,1.0,70,0.00,,CLR,0.00,VWS V14.01,2013-01-14 22:06:00,
2013-01-14 16:10:00,24.4,16.0,30.53,East,84,0.0,1.0,70,0.00,,SCT025,0.00,VWS V14.01,2013-01-14 22:10:00,
2013-01-14 16:12:00,24.3,15.6,30.53,East,85,0.0,0.0,69,0.00,,CLR,0.00,VWS V14.01,2013-01-14 22:12:00,
2013-01-14 16:17:00,24.2,15.2,30.53,ENE,73,0.0,2.0,68,0.00,,CLR,0.00,VWS V14.01,2013-01-14 22:17:00,
2013-01-14 16:20:00,24.1,15.4,30.53,ENE,73,0.0,2.0,69,0.00,,SCT025,0.00,VWS V14.01,2013-01-14 22:20:00,
2013-01-14 16:22:00,24.0,15.3,30.53,ENE,73,1.0,1.0,69,0.00,,CLR,0.00,VWS V14.01,2013-01-14 22:22:00,
2013-01-14 16:27:00,23.8,15.1,30.53,ENE,73,0.0,2.0,69,0.00,,CLR,0.00,VWS V14.01,2013-01-14 22:27:00,
2013-01-14 16:30:00,23.8,15.1,30.53,ENE,73,0.0,2.0,69,0.00,,SCT025,0.00,VWS V14.01,2013-01-14 22:30:00,
2013-01-14 16:32:00,23.7,15.0,30.53,ENE,73,0.0,0.0,69,0.00,,CLR,0.00,VWS V14.01,2013-01-14 22:32:00,
2013-01-14 16:37:00,23.5,15.5,30.52,East,91,0.0,1.0,71,0.00,,CLR,0.00,VWS V14.01,2013-01-14 22:37:00,
2013-01-14 16:40:00,23.4,15.4,30.52,East,97,0.0,1.0,71,0.00,,SCT025,0.00,VWS V14.01,2013-01-14 22:40:00,
2013-01-14 16:42:00,23.3,15.0,30.52,East,97,0.0,0.0,70,0.00,,,0.00,VWS V14.01,2013-01-14 22:42:00,
2013-01-14 16:47:00,23.1,15.1,30.52,East,91,0.0,1.0,71,0.00,,,0.00,VWS V14.01,2013-01-14 22:47:00,
2013-01-14 16:50:00,23.0,15.0,30.52,East,90,0.0,1.0,71,0.00,,SCT025,0.00,VWS V14.01,2013-01-14 22:50:00,
2013-01-14 16:52:00,22.9,14.9,30.52,East,90,0.0,0.0,71,0.00,,,0.00,VWS V14.01,2013-01-14 22:52:00,
2013-01-14 16:57:00,22.7,14.7,30.52,East,90,0.0,0.0,71,0.00,,,0.00,VWS V14.01,2013-01-14 22:57:00,
2013-01-14 17:00:00,22.6,14.9,30.52,East,91,0.0,0.0,72,0.00,,SCT025,0.00,VWS V14.01,2013-01-14 23:00:00,
2013-01-14 17:02:00,22.4,15.1,30.52,East,91,0.0,0.0,73,0.00,,,0.00,VWS V14.01,2013-01-14 23:02:00,
2013-01-14 17:07:00,22.2,14.9,30.52,East,91,0.0,1.0,73,0.00,,,0.00,VWS V14.01,2013-01-14 23:07:00,
2013-01-14 17:10:00,22.1,14.8,30.52,East,90,0.0,1.0,73,0.00,,SCT025,0.00,VWS V14.01,2013-01-14 23:10:00,
2013-01-14 17:12:00,22.0,14.7,30.52,East,91,0.0,0.0,73,0.00,,,0.00,VWS V14.01,2013-01-14 23:12:00,
2013-01-14 17:17:00,21.9,14.6,30.52,East,90,0.0,0.0,73,0.00,,,0.00,VWS V14.01,2013-01-14 23:17:00,
2013-01-14 17:20:00,21.8,14.5,30.52,East,90,0.0,0.0,73,0.00,,SCT025,0.00,VWS V14.01,2013-01-14 23:20:00,
2013-01-14 17:23:00,21.5,14.5,30.52,East,90,0.0,0.0,74,0.00,,,0.00,VWS V14.01,2013-01-14 23:23:00,
2013-01-14 17:28:00,21.1,14.4,30.52,East,90,0.0,0.0,75,0.00,,,0.00,VWS V14.01,2013-01-14 23:28:00,
2013-01-14 17:30:00,21.1,14.4,30.52,East,90,0.0,0.0,75,0.00,,SCT025,0.00,VWS V14.01,2013-01-14 23:30:00,
2013-01-14 17:33:00,20.8,14.4,30.52,East,90,0.0,0.0,76,0.00,,,0.00,VWS V14.01,2013-01-14 23:33:00,
2013-01-14 17:38:00,20.5,14.4,30.52,East,91,0.0,0.0,77,0.00,,,0.00,VWS V14.01,2013-01-14 23:38:00,
2013-01-14 17:40:00,20.5,14.4,30.52,East,90,0.0,0.0,77,0.00,,SCT025,0.00,VWS V14.01,2013-01-14 23:40:00,
2013-01-14 17:43:00,20.3,14.6,30.52,East,90,0.0,0.0,78,0.00,,,0.00,VWS V14.01,2013-01-14 23:43:00,
2013-01-14 17:48:00,20.2,15.0,30.52,East,90,0.0,1.0,80,0.00,,,0.00,VWS V14.01,2013-01-14 23:48:00,
2013-01-14 17:50:00,20.1,14.9,30.52,East,90,0.0,1.0,80,0.00,,SCT025,0.00,VWS V14.01,2013-01-14 23:50:00,
2013-01-14 17:53:00,20.0,15.1,30.52,East,90,0.0,0.0,81,0.00,,,0.00,VWS V14.01,2013-01-14 23:53:00,
2013-01-14 17:58:00,19.8,14.9,30.52,East,90,0.0,0.0,81,0.00,,,0.00,VWS V14.01,2013-01-14 23:58:00,
2013-01-14 18:00:00,19.8,14.9,30.52,East,90,0.0,0.0,81,0.00,,SCT025,0.00,VWS V14.01,2013-01-15 00:00:00,
2013-01-14 18:03:00,19.6,14.7,30.52,East,90,0.0,0.0,81,0.00,,,0.00,VWS V14.01,2013-01-15 00:03:00,
2013-01-14 18:08:00,19.5,14.9,30.51,East,91,0.0,0.0,82,0.00,,,0.00,VWS V14.01,2013-01-15 00:08:00,
2013-01-14 18:10:00,19.5,14.9,30.51,East,90,0.0,0.0,82,0.00,,SCT025,0.00,VWS V14.01,2013-01-15 00:10:00,
2013-01-14 18:13:00,19.6,15.0,30.52,East,90,0.0,0.0,82,0.00,,,0.00,VWS V14.01,2013-01-15 00:13:00,
2013-01-14 18:18:00,19.6,15.0,30.52,East,90,0.0,0.0,82,0.00,,,0.00,VWS V14.01,2013-01-15 00:18:00,
2013-01-14 18:20:00,19.6,15.0,30.52,East,90,0.0,0.0,82,0.00,,SCT025,0.00,VWS V14.01,2013-01-15 00:20:00,
2013-01-14 18:24:00,19.6,15.0,30.52,East,90,0.0,0.0,82,0.00,,,0.00,VWS V14.01,2013-01-15 00:24:00,
2013-01-14 18:29:00,19.4,14.8,30.52,East,90,0.0,0.0,82,0.00,,,0.00,VWS V14.01,2013-01-15 00:29:00,
2013-01-14 18:30:00,19.4,14.8,30.52,East,91,0.0,0.0,82,0.00,,SCT025,0.00,VWS V14.01,2013-01-15 00:30:00,
2013-01-14 18:34:00,19.3,14.7,30.52,East,90,0.0,0.0,82,0.00,,,0.00,VWS V14.01,2013-01-15 00:34:00,
2013-01-14 18:39:00,19.4,14.8,30.52,East,90,0.0,0.0,82,0.00,,,0.00,VWS V14.01,2013-01-15 00:39:00,
2013-01-14 18:40:00,19.4,14.8,30.52,East,90,0.0,1.0,82,0.00,,SCT025,0.00,VWS V14.01,2013-01-15 00:40:00,
2013-01-14 18:44:00,19.3,14.4,30.52,East,90,0.0,0.0,81,0.00,,,0.00,VWS V14.01,2013-01-15 00:44:00,
2013-01-14 18:49:00,19.3,14.7,30.52,East,90,0.0,0.0,82,0.00,,,0.00,VWS V14.01,2013-01-15 00:49:00,
2013-01-14 18:50:00,19.3,14.7,30.52,East,90,0.0,0.0,82,0.00,,SCT025,0.00,VWS V14.01,2013-01-15 00:50:00,
2013-01-14 18:54:00,18.9,14.3,30.52,East,90,0.0,0.0,82,0.00,,,0.00,VWS V14.01,2013-01-15 00:54:00,
2013-01-14 18:59:00,18.6,14.0,30.52,East,90,0.0,0.0,82,0.00,,,0.00,VWS V14.01,2013-01-15 00:59:00,
2013-01-14 19:00:00,18.6,14.0,30.52,East,90,0.0,0.0,82,0.00,,SCT025,0.00,VWS V14.01,2013-01-15 01:00:00,
2013-01-14 19:04:00,18.7,14.4,30.52,East,90,0.0,0.0,83,0.00,,,0.00,VWS V14.01,2013-01-15 01:04:00,
2013-01-14 19:09:00,18.8,14.2,30.52,East,90,0.0,0.0,82,0.00,,,0.00,VWS V14.01,2013-01-15 01:09:00,
2013-01-14 19:10:00,18.8,14.5,30.52,East,91,0.0,0.0,83,0.00,,SCT025,0.00,VWS V14.01,2013-01-15 01:10:00,
2013-01-14 19:14:00,18.7,14.1,30.52,East,90,0.0,0.0,82,0.00,,,0.00,VWS V14.01,2013-01-15 01:14:00,
2013-01-14 19:19:00,18.6,14.0,30.52,East,90,0.0,0.0,82,0.00,,,0.00,VWS V14.01,2013-01-15 01:19:00,
2013-01-14 19:20:00,18.6,14.0,30.52,East,91,0.0,0.0,82,0.00,,SCT025,0.00,VWS V14.01,2013-01-15 01:20:00,
2013-01-14 19:24:00,18.6,14.3,30.52,East,90,0.0,0.0,83,0.00,,,0.00,VWS V14.01,2013-01-15 01:24:00,
2013-01-14 19:30:00,18.9,14.6,30.52,East,91,0.0,0.0,83,0.00,,,0.00,VWS V14.01,2013-01-15 01:30:00,
2013-01-14 19:35:00,19.0,14.4,30.52,East,90,0.0,0.0,82,0.00,,,0.00,VWS V14.01,2013-01-15 01:35:00,
2013-01-14 19:40:00,19.0,14.4,30.51,East,90,0.0,0.0,82,0.00,,CLR,0.00,VWS V14.01,2013-01-15 01:40:00,
2013-01-14 19:45:00,19.0,14.1,30.51,East,90,0.0,0.0,81,0.00,,CLR,0.00,VWS V14.01,2013-01-15 01:45:00,
2013-01-14 19:50:00,19.0,14.1,30.51,East,90,0.0,0.0,81,0.00,,CLR,0.00,VWS V14.01,2013-01-15 01:50:00,
2013-01-14 19:55:00,19.0,14.1,30.51,East,91,0.0,0.0,81,0.00,,CLR,0.00,VWS V14.01,2013-01-15 01:55:00,
2013-01-14 20:00:00,18.9,14.0,30.51,East,90,0.0,0.0,81,0.00,,CLR,0.00,VWS V14.01,2013-01-15 02:00:00,
2013-01-14 20:05:00,18.8,13.9,30.51,East,90,0.0,0.0,81,0.00,,CLR,0.00,VWS V14.01,2013-01-15 02:05:00,
2013-01-14 20:10:00,18.7,13.9,30.51,East,91,0.0,0.0,81,0.00,,CLR,0.00,VWS V14.01,2013-01-15 02:10:00,
2013-01-14 20:15:00,18.5,13.6,30.51,East,90,0.0,0.0,81,0.00,,CLR,0.00,VWS V14.01,2013-01-15 02:15:00,
2013-01-14 20:20:00,18.3,13.7,30.50,East,90,0.0,0.0,82,0.00,,CLR,0.00,VWS V14.01,2013-01-15 02:20:00,
2013-01-14 20:26:00,18.4,13.8,30.50,East,90,0.0,0.0,82,0.00,,CLR,0.00,VWS V14.01,2013-01-15 02:26:00,
2013-01-14 20:30:00,18.4,13.8,30.51,East,90,0.0,0.0,82,0.00,,SCT025,0.00,VWS V14.01,2013-01-15 02:30:00,
2013-01-14 20:31:00,18.4,13.8,30.51,East,91,0.0,0.0,82,0.00,,CLR,0.00,VWS V14.01,2013-01-15 02:31:00,
2013-01-14 20:36:00,18.3,14.0,30.51,East,90,0.0,1.0,83,0.00,,CLR,0.00,VWS V14.01,2013-01-15 02:36:00,
2013-01-14 20:40:00,18.2,13.9,30.51,East,91,0.0,1.0,83,0.00,,SCT025,0.00,VWS V14.01,2013-01-15 02:40:00,
2013-01-14 20:41:00,18.1,13.8,30.51,East,90,0.0,0.0,83,0.00,,,0.00,VWS V14.01,2013-01-15 02:41:00,
2013-01-14 20:46:00,18.1,13.8,30.51,East,91,0.0,0.0,83,0.00,,,0.00,VWS V14.01,2013-01-15 02:46:00,
2013-01-14 20:50:00,18.0,13.7,30.51,East,90,0.0,0.0,83,0.00,,SCT025,0.00,VWS V14.01,2013-01-15 02:50:00,
2013-01-14 20:51:00,18.0,13.7,30.51,East,90,0.0,0.0,83,0.00,,,0.00,VWS V14.01,2013-01-15 02:51:00,
2013-01-14 20:56:00,17.9,13.6,30.51,East,90,0.0,0.0,83,0.00,,,0.00,VWS V14.01,2013-01-15 02:56:00,
2013-01-14 21:00:00,17.9,13.6,30.51,East,90,0.0,0.0,83,0.00,,SCT025,0.00,VWS V14.01,2013-01-15 03:00:00,
2013-01-14 21:01:00,17.9,13.6,30.50,East,90,0.0,0.0,83,0.00,,,0.00,VWS V14.01,2013-01-15 03:01:00,
2013-01-14 21:07:00,17.9,13.6,30.50,East,90,0.0,0.0,83,0.00,,,0.00,VWS V14.01,2013-01-15 03:07:00,
2013-01-14 21:10:00,17.9,13.6,30.50,East,90,0.0,0.0,83,0.00,,SCT025,0.00,VWS V14.01,2013-01-15 03:10:00,
2013-01-14 21:12:00,17.9,13.6,30.50,East,90,0.0,0.0,83,0.00,,,0.00,VWS V14.01,2013-01-15 03:12:00,
2013-01-14 21:17:00,17.7,13.4,30.50,East,90,0.0,0.0,83,0.00,,,0.00,VWS V14.01,2013-01-15 03:17:00,
2013-01-14 21:20:00,17.6,13.3,30.50,East,90,0.0,0.0,83,0.00,,SCT025,0.00,VWS V14.01,2013-01-15 03:20:00,
2013-01-14 21:22:00,17.5,13.2,30.50,East,90,0.0,0.0,83,0.00,,,0.00,VWS V14.01,2013-01-15 03:22:00,
2013-01-14 21:27:00,17.4,13.1,30.50,East,90,0.0,0.0,83,0.00,,,0.00,VWS V14.01,2013-01-15 03:27:00,
2013-01-14 21:30:00,17.4,13.4,30.50,East,90,0.0,0.0,84,0.00,,SCT025,0.00,VWS V14.01,2013-01-15 03:30:00,
2013-01-14 21:32:00,17.4,13.4,30.50,East,90,0.0,0.0,84,0.00,,,0.00,VWS V14.01,2013-01-15 03:32:00,
2013-01-14 21:37:00,17.4,13.4,30.50,East,90,0.0,0.0,84,0.00,,,0.00,VWS V14.01,2013-01-15 03:37:00,
2013-01-14 21:40:00,17.4,13.4,30.50,East,90,0.0,1.0,84,0.00,,SCT025,0.00,VWS V14.01,2013-01-15 03:40:00,
2013-01-14 21:42:00,17.4,13.4,30.50,East,90,0.0,0.0,84,0.00,,,0.00,VWS V14.01,2013-01-15 03:42:00,
2013-01-14 21:47:00,17.4,13.7,30.50,East,91,0.0,0.0,85,0.00,,,0.00,VWS V14.01,2013-01-15 03:47:00,
2013-01-14 21:50:00,17.4,13.7,30.50,East,91,0.0,0.0,85,0.00,,SCT025,0.00,VWS V14.01,2013-01-15 03:50:00,
2013-01-14 21:52:00,17.4,13.7,30.50,East,90,1.0,1.0,85,0.00,,,0.00,VWS V14.01,2013-01-15 03:52:00,
2013-01-14 21:57:00,17.6,13.9,30.50,East,90,0.0,1.0,85,0.00,,,0.00,VWS V14.01,2013-01-15 03:57:00,
2013-01-14 22:00:00,17.6,13.9,30.50,East,90,0.0,1.0,85,0.00,,SCT025,0.00,VWS V14.01,2013-01-15 04:00:00,
2013-01-14 22:03:00,17.7,14.0,30.50,East,91,0.0,0.0,85,0.00,,,0.00,VWS V14.01,2013-01-15 04:03:00,
2013-01-14 22:08:00,17.7,14.0,30.50,East,90,0.0,0.0,85,0.00,,,0.00,VWS V14.01,2013-01-15 04:08:00,
2013-01-14 22:10:00,17.6,13.9,30.50,East,91,0.0,0.0,85,0.00,,SCT025,0.00,VWS V14.01,2013-01-15 04:10:00,
2013-01-14 22:13:00,17.6,13.9,30.50,East,90,0.0,0.0,85,0.00,,,0.00,VWS V14.01,2013-01-15 04:13:00,
2013-01-14 22:18:00,17.5,13.8,30.50,East,90,0.0,0.0,85,0.00,,,0.00,VWS V14.01,2013-01-15 04:18:00,
2013-01-14 22:20:00,17.5,13.8,30.50,East,90,0.0,0.0,85,0.00,,,0.00,VWS V14.01,2013-01-15 04:20:00,
2013-01-14 22:23:00,17.4,13.7,30.50,East,90,0.0,0.0,85,0.00,,,0.00,VWS V14.01,2013-01-15 04:23:00,
2013-01-14 22:28:00,17.3,13.6,30.51,East,90,0.0,0.0,85,0.00,,,0.00,VWS V14.01,2013-01-15 04:28:00,
2013-01-14 22:30:00,17.3,13.6,30.51,East,91,0.0,0.0,85,0.00,,SCT025,0.00,VWS V14.01,2013-01-15 04:30:00,
2013-01-14 22:33:00,17.1,13.4,30.51,East,90,0.0,0.0,85,0.00,,,0.00,VWS V14.01,2013-01-15 04:33:00,
2013-01-14 22:38:00,16.8,13.4,30.51,East,90,0.0,0.0,86,0.00,,,0.00,VWS V14.01,2013-01-15 04:38:00,
2013-01-14 22:40:00,16.7,13.2,30.51,East,91,0.0,0.0,86,0.00,,SCT025,0.00,VWS V14.01,2013-01-15 04:40:00,
2013-01-14 22:43:00,16.5,13.1,30.51,East,90,0.0,0.0,86,0.00,,,0.00,VWS V14.01,2013-01-15 04:43:00,
2013-01-14 22:48:00,16.2,12.8,30.51,East,90,0.0,0.0,86,0.00,,,0.00,VWS V14.01,2013-01-15 04:48:00,
2013-01-14 22:50:00,16.2,12.8,30.51,East,90,0.0,0.0,86,0.00,,SCT025,0.00,VWS V14.01,2013-01-15 04:50:00,
2013-01-14 22:53:00,16.3,13.1,30.51,East,90,0.0,0.0,87,0.00,,,0.00,VWS V14.01,2013-01-15 04:53:00,
2013-01-14 22:58:00,16.3,13.4,30.50,East,90,0.0,0.0,88,0.00,,,0.00,VWS V14.01,2013-01-15 04:58:00,
2013-01-14 23:00:00,16.4,13.5,30.50,East,86,0.0,1.0,88,0.00,,,0.00,VWS V14.01,2013-01-15 05:00:00,
2013-01-14 23:01:00,16.4,13.5,30.50,East,86,0.0,1.0,88,0.00,,,0.00,VWS V14.01,2013-01-15 05:01:00,
2013-01-14 23:02:00,16.4,13.5,30.50,East,84,0.0,1.0,88,0.00,,,0.00,VWS V14.01,2013-01-15 05:02:00,
2013-01-14 23:03:00,16.4,13.5,30.50,East,84,0.0,1.0,88,0.00,,,0.00,VWS V14.01,2013-01-15 05:03:00,
2013-01-14 23:08:00,16.6,13.7,30.50,ENE,71,0.0,1.0,88,0.00,,,0.00,VWS V14.01,2013-01-15 05:08:00,
2013-01-14 23:10:00,16.6,13.7,30.50,ENE,71,0.0,1.0,88,0.00,,SCT025,0.00,VWS V14.01,2013-01-15 05:10:00,
2013-01-14 23:13:00,16.7,13.8,30.51,ENE,71,0.0,0.0,88,0.00,,,0.00,VWS V14.01,2013-01-15 05:13:00,
2013-01-14 23:18:00,16.7,14.0,30.51,ENE,69,0.0,1.0,89,0.00,,,0.00,VWS V14.01,2013-01-15 05:18:00,
2013-01-14 23:20:00,16.7,14.0,30.51,ENE,70,0.0,1.0,89,0.00,,SCT025,0.00,VWS V14.01,2013-01-15 05:20:00,
2013-01-14 23:23:00,16.8,14.1,30.50,ENE,70,0.0,1.0,89,0.00,,,0.00,VWS V14.01,2013-01-15 05:23:00,
2013-01-14 23:28:00,16.8,14.1,30.51,ENE,69,0.0,1.0,89,0.00,,,0.00,VWS V14.01,2013-01-15 05:28:00,
2013-01-14 23:30:00,16.8,14.1,30.51,ENE,70,0.0,1.0,89,0.00,,SCT025,0.00,VWS V14.01,2013-01-15 05:30:00,
2013-01-14 23:33:00,17.0,14.3,30.51,ENE,70,0.0,1.0,89,0.00,,,0.00,VWS V14.01,2013-01-15 05:33:00,
2013-01-14 23:38:00,17.0,14.1,30.51,ENE,70,0.0,1.0,88,0.00,,,0.00,VWS V14.01,2013-01-15 05:38:00,
2013-01-14 23:40:00,17.0,14.1,30.51,ENE,69,0.0,1.0,88,0.00,,SCT025,0.00,VWS V14.01,2013-01-15 05:40:00,
2013-01-14 23:44:00,16.7,13.8,30.51,ENE,69,0.0,0.0,88,0.00,,CLR,0.00,VWS V14.01,2013-01-15 05:44:00,
2013-01-14 23:49:00,16.4,13.5,30.51,ENE,69,0.0,0.0,88,0.00,,CLR,0.00,VWS V14.01,2013-01-15 05:49:00,
2013-01-14 23:50:00,16.4,13.5,30.51,ENE,69,0.0,0.0,88,0.00,,SCT025,0.00,VWS V14.01,2013-01-15 05:50:00,
2013-01-14 23:54:00,16.2,13.3,30.51,ENE,69,0.0,0.0,88,0.00,,CLR,0.00,VWS V14.01,2013-01-15 05:54:00,
2013-01-14 23:59:00,16.3,13.4,30.51,ENE,70,0.0,0.0,88,0.00,,CLR,0.00,VWS V14.01,2013-01-15 05:59:00,